CZ-6A DEB, 54356

Orbit data source: Space-Track

CZ-6A DEB, 54356 is space debris in SSO originally from a launch on Fri, 11 Nov 2022 UTC launched from the Taiyaun Space Center, China (TSC). Debris objects in space refer to the collection of defunct objects orbiting the Earth. Examples of debris include non-operational satellites, rocket bodies, and fragments generated from explosions, collisions, or faulty payload assembly.

Loading next visibility...
Identifier
54356, 2022-151DB
Orbit
SSO
Country
Flag of CNCN / PRC
Related business
Manufacturer
SAST
Mission
Spacecraft
Bus & Motor
Unknown
Mass
Unknown
Launch date (UTC)
2022-11-11 (4 years ago)
Launch vehicle
Unknown
Launch site
Taiyaun Space Center, China (TSC)
Object type
Payload
Rocket body
Debris
Shape & HBR
Unknown shape, 0.1 m
Radar Cross Section
Medium (>0.1 m² and <1 m²)

Expand to show TLE details & history
Last TLE update: 3 days ago

TLE from 3 days ago
0 CZ-6A DEB
1 54356U 22151DB  26170.59968712  .00002294  00000-0  78035-3 0  9990
2 54356  98.8697 228.7936 0067919 103.0193 257.8586 14.36258999187405
Epoch: 2026-06-19T14:23Z
TLE epoch observation values (Epoch: 2026-06-19T14:23:32.967Z)
Latitude
-0.00001°
Longitude
105.07989°
Altitude
784.346 km
Speed
7.456 km/s
True Right ascension
15h 15m 10s
True Declination
0° 00' 00"
Sunlit
Object was in full shadow at epoch
Visualization orbit readout
Latitude
Unknown
Longitude
Unknown
Altitude
Unknown
Speed
Unknown
Apparent Right ascension
Unknown
Apparent Declination
Unknown
Sunlit
N/A
Visualization observer readout
Local Sidereal Time
21:29:15
Azimuth
Unknown
Elevation
Unknown
Doppler factor
Unknown
Orbital elements
Apogee altitude
816.566 km
Perigee altitude
719.494 km
Semi-major axis
7,146.167 km
Eccentricity
0.00679
Inclination
98.8697°
RAAN
228.7936°
Arg. of periapsis
103.0193°
True anomaly
257.09909°
Mean anomaly
257.8586°
Eccentric anomaly
257.47871°
Mean motion
3.5928 °/min
Orbital period
100.2 mins
BSTAR
0.00078035
Loading maneuver chart data...
Computing Atmospheric mass density...
Loading historical data...
Loading historical data...
Loading historical data...
Loading historical data...
Loading historical data...
Loading historical data...
Loading historical data...

Documentation

Showing up to 5 results
|